Белые Воды

Казахстан     42°25′01″N   69°49′58″E
темп.,
°C
ветер,
м/с
пор.,
м/с
влажн.,
%
обл.,
%
осадки,
мм/ч
давл.,
гПа
погр.,
м
25 января, пн
пн2523:00−5всв34750 0.0 103674
02:00−5в33727 0.0 103473
05:00−5в23704 0.0 103350
08:00−5в23685 0.0 103339
11:00−1в126033 0.0 1033173
14:00+1с116062 0.0 1031276
17:00−1с117667 0.0 103221
20:00−3в337491 0.0 103363
26 января, вт
вт2623:00−4в237089 0.0 103363
02:00−4в236682 0.0 103354
05:00−4в336348 0.0 103256
08:00−4в33620 0.0 103354
11:000в24560 0.0 1032171
14:00+3всв24560 0.0 1030265
17:000всв23670 0.0 103131
20:00−2в33620 0.0 103266
27 января, ср
ср2723:00−2в34570 0.0 103166
02:00−2в33530 0.0 103048
05:00−2в33500 0.0 103044
08:00−2в23490 0.0 103134
11:00+2в22440 0.0 1030127
14:00+5ссв11410 0.0 1029254
17:00+1св11580 0.0 102922
20:00−1в33590 0.0 103051
28 января, чт
чт2823:00−1в33520 0.0 102959
02:00−1в33480 0.0 102953
05:00−1в33460 0.0 102946
08:00−2в33440 0.0 102946
11:00+3в22370 0.0 1028159
14:00+5всв11360 0.0 1028334
17:00+2в12550 0.0 102822
20:000в34530 0.0 102955
29 января, пт
пт2923:00−1в33480 0.0 102952
02:00−1в23440 0.0 102934
05:00−1в23410 0.0 102932
08:00−1в33380 0.0 102939
11:00+4в23310 0.0 1028139
14:00+7в23320 0.0 1026235
17:00+3в33490 0.0 102527
20:00+1в44460 0.0 102556